Time,TemperatureF,DewpointF,PressureIn,WindDirection,WindDirectionDegrees,WindSpeedMPH,WindSpeedGustMPH,Humidity,HourlyPrecipIn,Conditions,Clouds,dailyrainin,SolarRadiationWatts/m^2,SoftwareType,DateUTC
2013-08-08 00:01:00,59.7,56.1,30.15,SE,127,0.0,0.0,88,0.00,,,0.00,0,Wunderground v.1.15,2013-08-08 04:01:00,
2013-08-08 00:02:00,59.7,56.1,30.15,SE,127,0.0,0.0,88,0.00,,,0.00,0,Wunderground v.1.15,2013-08-08 04:02:00,
2013-08-08 00:05:00,59.8,55.9,30.15,SE,127,0.0,0.0,87,0.00,,,0.00,0,Wunderground v.1.15,2013-08-08 04:05:00,
2013-08-08 00:06:00,59.8,55.9,30.15,SE,127,0.0,0.0,87,0.00,,,0.00,0,Wunderground v.1.15,2013-08-08 04:06:00,
2013-08-08 00:09:00,59.9,56.0,30.16,SE,127,0.0,0.0,87,0.00,,,0.00,0,Wunderground v.1.15,2013-08-08 04:09:00,
2013-08-08 00:14:00,59.6,56.0,30.16,SE,127,0.0,0.0,88,0.00,,,0.00,0,Wunderground v.1.15,2013-08-08 04:14:00,
2013-08-08 00:20:00,59.6,56.0,30.16,SE,127,0.0,0.0,88,0.00,,,0.00,0,Wunderground v.1.15,2013-08-08 04:20:00,
2013-08-08 00:26:00,60.0,56.4,30.15,SE,127,0.0,0.0,88,0.00,,,0.00,0,Wunderground v.1.15,2013-08-08 04:26:00,
2013-08-08 00:31:00,59.8,55.9,30.15,SE,127,0.0,0.0,87,0.00,,,0.00,0,Wunderground v.1.15,2013-08-08 04:31:00,
2013-08-08 00:37:00,59.8,55.9,30.15,SE,127,0.0,0.0,87,0.00,,,0.00,0,Wunderground v.1.15,2013-08-08 04:37:00,
2013-08-08 00:42:00,60.0,56.4,30.15,SE,127,0.0,0.0,88,0.00,,,0.00,0,Wunderground v.1.15,2013-08-08 04:42:00,
2013-08-08 00:48:00,60.0,56.4,30.15,SE,127,0.0,0.0,88,0.00,,,0.00,0,Wunderground v.1.15,2013-08-08 04:48:00,
2013-08-08 00:53:00,60.2,56.3,30.14,SE,127,0.0,0.0,87,0.00,,,0.00,0,Wunderground v.1.15,2013-08-08 04:53:00,
2013-08-08 00:59:00,60.2,56.3,30.14,SE,127,0.0,0.0,87,0.00,,,0.00,0,Wunderground v.1.15,2013-08-08 04:59:00,
2013-08-08 01:04:00,60.2,56.3,30.14,SE,127,0.0,0.0,87,0.00,,,0.00,0,Wunderground v.1.15,2013-08-08 05:04:00,
2013-08-08 01:09:00,60.2,56.3,30.14,SE,127,0.0,0.0,87,0.00,,,0.00,0,Wunderground v.1.15,2013-08-08 05:09:00,
2013-08-08 01:14:00,60.2,56.6,30.14,SE,127,0.0,0.0,88,0.00,,,0.00,0,Wunderground v.1.15,2013-08-08 05:14:00,
2013-08-08 01:19:00,60.2,56.6,30.14,SE,127,0.0,0.0,88,0.00,,,0.00,0,Wunderground v.1.15,2013-08-08 05:19:00,
2013-08-08 01:25:00,60.3,56.7,30.14,SE,127,0.0,0.0,88,0.00,,,0.00,0,Wunderground v.1.15,2013-08-08 05:25:00,
2013-08-08 01:30:00,60.3,56.4,30.13,SE,127,0.0,0.0,87,0.00,,,0.00,0,Wunderground v.1.15,2013-08-08 05:30:00,
2013-08-08 01:35:00,60.3,56.4,30.13,SE,127,0.0,0.0,87,0.00,,,0.00,0,Wunderground v.1.15,2013-08-08 05:35:00,
2013-08-08 01:41:00,60.3,56.7,30.13,SE,127,0.0,0.0,88,0.00,,,0.00,0,Wunderground v.1.15,2013-08-08 05:41:00,
2013-08-08 01:46:00,60.3,56.7,30.13,SE,127,0.0,0.0,88,0.00,,,0.00,0,Wunderground v.1.15,2013-08-08 05:46:00,
2013-08-08 01:51:00,60.4,56.8,30.13,SE,127,0.0,0.0,88,0.00,,,0.00,0,Wunderground v.1.15,2013-08-08 05:51:00,
2013-08-08 01:57:00,60.4,56.8,30.13,SE,127,0.0,0.0,88,0.00,,,0.00,0,Wunderground v.1.15,2013-08-08 05:57:00,
2013-08-08 02:03:00,60.5,57.2,30.13,SE,127,0.0,0.0,89,0.00,,,0.00,0,Wunderground v.1.15,2013-08-08 06:03:00,
2013-08-08 02:09:00,60.5,56.9,30.13,SE,127,0.0,0.0,88,0.00,,,0.00,0,Wunderground v.1.15,2013-08-08 06:09:00,
2013-08-08 02:15:00,60.5,57.6,30.13,SE,127,0.0,0.0,90,0.00,,,0.00,0,Wunderground v.1.15,2013-08-08 06:15:00,
2013-08-08 02:21:00,60.5,57.6,30.13,SE,127,0.0,0.0,90,0.00,,,0.00,0,Wunderground v.1.15,2013-08-08 06:21:00,
2013-08-08 02:26:00,60.5,57.6,30.13,SE,127,0.0,0.0,90,0.00,,,0.00,0,Wunderground v.1.15,2013-08-08 06:26:00,
2013-08-08 02:32:00,60.6,58.0,30.13,SE,127,0.0,0.0,91,0.00,,,0.00,0,Wunderground v.1.15,2013-08-08 06:32:00,
2013-08-08 02:37:00,60.7,58.1,30.13,SE,127,0.0,0.0,91,0.00,,,0.00,0,Wunderground v.1.15,2013-08-08 06:37:00,
2013-08-08 02:43:00,60.6,58.3,30.13,SE,127,0.0,0.0,92,0.00,,,0.00,0,Wunderground v.1.15,2013-08-08 06:43:00,
2013-08-08 02:48:00,60.8,58.5,30.13,SE,127,0.0,0.0,92,0.00,,,0.00,0,Wunderground v.1.15,2013-08-08 06:48:00,
2013-08-08 02:54:00,61.1,58.8,30.13,SE,127,0.0,0.0,92,0.00,,,0.00,0,Wunderground v.1.15,2013-08-08 06:54:00,
2013-08-08 02:59:00,61.2,58.9,30.13,SE,127,0.0,0.0,92,0.00,,,0.00,0,Wunderground v.1.15,2013-08-08 06:59:00,
2013-08-08 03:05:00,61.3,59.0,30.13,SE,127,0.0,0.0,92,0.00,,,0.00,0,Wunderground v.1.15,2013-08-08 07:05:00,
2013-08-08 03:10:00,61.5,59.2,30.13,SE,127,0.0,0.0,92,0.00,,,0.00,0,Wunderground v.1.15,2013-08-08 07:10:00,
2013-08-08 03:15:00,61.7,59.4,30.12,SE,127,0.0,0.0,92,0.00,,,0.00,0,Wunderground v.1.15,2013-08-08 07:15:00,
2013-08-08 03:21:00,62.3,59.9,30.11,SE,127,0.0,0.0,92,0.00,,,0.00,0,Wunderground v.1.15,2013-08-08 07:21:00,
2013-08-08 03:26:00,62.6,59.9,30.11,SE,127,0.0,0.0,91,0.00,,,0.00,0,Wunderground v.1.15,2013-08-08 07:26:00,
2013-08-08 03:31:00,62.9,60.2,30.10,SE,127,0.0,0.0,91,0.00,,,0.00,0,Wunderground v.1.15,2013-08-08 07:31:00,
2013-08-08 03:36:00,63.0,60.3,30.10,SE,127,0.0,0.0,91,0.00,,,0.00,0,Wunderground v.1.15,2013-08-08 07:36:00,
2013-08-08 03:41:00,63.1,60.4,30.11,SE,127,0.0,0.0,91,0.00,,,0.00,0,Wunderground v.1.15,2013-08-08 07:41:00,
2013-08-08 03:46:00,63.1,60.4,30.11,SE,127,0.0,0.0,91,0.00,,,0.00,0,Wunderground v.1.15,2013-08-08 07:46:00,
2013-08-08 03:51:00,63.3,60.6,30.11,SE,127,0.0,0.0,91,0.00,,,0.00,0,Wunderground v.1.15,2013-08-08 07:51:00,
2013-08-08 03:57:00,63.4,60.7,30.11,SE,127,0.0,0.0,91,0.00,,,0.00,0,Wunderground v.1.15,2013-08-08 07:57:00,
2013-08-08 04:03:00,63.6,60.9,30.11,SE,127,0.0,0.0,91,0.00,,,0.00,0,Wunderground v.1.15,2013-08-08 08:03:00,
2013-08-08 04:08:00,64.0,61.3,30.10,SE,127,0.0,0.0,91,0.00,,,0.00,0,Wunderground v.1.15,2013-08-08 08:08:00,
2013-08-08 04:13:00,64.5,61.5,30.10,SE,127,0.0,0.0,90,0.00,,,0.00,0,Wunderground v.1.15,2013-08-08 08:13:00,
2013-08-08 04:18:00,64.3,61.3,30.10,SE,127,0.0,0.0,90,0.00,,,0.00,0,Wunderground v.1.15,2013-08-08 08:18:00,
2013-08-08 04:24:00,64.2,61.5,30.11,SE,127,0.0,0.0,91,0.00,,,0.00,0,Wunderground v.1.15,2013-08-08 08:24:00,
2013-08-08 04:29:00,64.2,61.5,30.11,SE,127,0.0,0.0,91,0.00,,,0.00,0,Wunderground v.1.15,2013-08-08 08:29:00,
2013-08-08 04:34:00,64.4,61.7,30.11,SE,127,0.0,0.0,91,0.00,,,0.00,0,Wunderground v.1.15,2013-08-08 08:34:00,
2013-08-08 04:40:00,64.5,61.8,30.10,SE,127,0.0,0.0,91,0.00,,,0.00,0,Wunderground v.1.15,2013-08-08 08:40:00,
2013-08-08 04:46:00,64.4,61.7,30.11,SE,127,0.0,0.0,91,0.00,,,0.00,0,Wunderground v.1.15,2013-08-08 08:46:00,
2013-08-08 04:51:00,64.5,61.8,30.11,SE,127,0.0,0.0,91,0.00,,,0.00,0,Wunderground v.1.15,2013-08-08 08:51:00,
2013-08-08 04:57:00,64.6,61.9,30.10,SE,127,0.0,0.0,91,0.00,,,0.00,0,Wunderground v.1.15,2013-08-08 08:57:00,
2013-08-08 05:02:00,64.6,61.9,30.11,SE,127,0.0,0.0,91,0.00,,,0.00,0,Wunderground v.1.15,2013-08-08 09:02:00,
2013-08-08 05:08:00,64.8,62.1,30.11,SE,127,0.0,0.0,91,0.00,,,0.00,0,Wunderground v.1.15,2013-08-08 09:08:00,
2013-08-08 05:14:00,64.9,62.5,30.10,SE,127,0.0,0.0,92,0.00,,,0.00,0,Wunderground v.1.15,2013-08-08 09:14:00,
2013-08-08 05:19:00,65.2,62.5,30.10,SE,127,0.0,0.0,91,0.00,,,0.00,0,Wunderground v.1.15,2013-08-08 09:19:00,
2013-08-08 05:25:00,65.5,62.8,30.10,SE,127,0.0,0.0,91,0.00,,,0.00,0,Wunderground v.1.15,2013-08-08 09:25:00,
2013-08-08 05:31:00,65.8,63.1,30.10,SE,127,0.0,0.0,91,0.00,,,0.00,0,Wunderground v.1.15,2013-08-08 09:31:00,
2013-08-08 05:36:00,66.0,63.0,30.10,SE,127,0.0,0.0,90,0.00,,,0.00,0,Wunderground v.1.15,2013-08-08 09:36:00,
2013-08-08 05:42:00,66.1,63.1,30.10,SE,125,0.0,0.0,90,0.00,,,0.00,0,Wunderground v.1.15,2013-08-08 09:42:00,
2013-08-08 05:47:00,65.9,63.2,30.10,SSW,196,0.0,0.0,91,0.00,,,0.00,0,Wunderground v.1.15,2013-08-08 09:47:00,
2013-08-08 05:53:00,66.2,63.5,30.10,SSW,196,0.0,0.0,91,0.00,,,0.00,0,Wunderground v.1.15,2013-08-08 09:53:00,
2013-08-08 05:59:00,66.3,63.6,30.10,SSW,196,0.0,0.0,91,0.00,,,0.00,0,Wunderground v.1.15,2013-08-08 09:59:00,
2013-08-08 06:05:00,66.6,63.6,30.10,SSW,196,0.0,0.0,90,0.00,,,0.00,0,Wunderground v.1.15,2013-08-08 10:05:00,
2013-08-08 06:10:00,66.9,63.9,30.10,SSW,195,0.0,0.0,90,0.00,,,0.00,0,Wunderground v.1.15,2013-08-08 10:10:00,
2013-08-08 06:16:00,67.2,63.8,30.10,SSW,195,0.0,0.0,89,0.00,,,0.00,5,Wunderground v.1.15,2013-08-08 10:16:00,
2013-08-08 06:22:00,67.3,63.9,30.10,SSW,196,0.0,0.0,89,0.00,,,0.00,5,Wunderground v.1.15,2013-08-08 10:22:00,
2013-08-08 06:28:00,67.5,64.1,30.10,SSW,195,0.0,0.0,89,0.00,,,0.00,9,Wunderground v.1.15,2013-08-08 10:28:00,
2013-08-08 06:33:00,67.4,64.0,30.10,SSW,195,0.0,0.0,89,0.00,,,0.00,9,Wunderground v.1.15,2013-08-08 10:33:00,
2013-08-08 06:39:00,67.4,64.0,30.10,SSW,195,0.0,0.0,89,0.00,,,0.00,14,Wunderground v.1.15,2013-08-08 10:39:00,
2013-08-08 06:44:00,67.6,63.9,30.10,SSW,195,0.0,0.0,88,0.00,,,0.00,12,Wunderground v.1.15,2013-08-08 10:44:00,
2013-08-08 06:50:00,67.8,64.1,30.10,SSW,195,0.0,0.0,88,0.00,,,0.00,16,Wunderground v.1.15,2013-08-08 10:50:00,
2013-08-08 06:55:00,67.9,63.9,30.10,SSW,195,0.0,1.0,87,0.00,,,0.00,18,Wunderground v.1.15,2013-08-08 10:55:00,
2013-08-08 07:00:00,68.0,64.0,30.10,SSW,195,0.0,0.0,87,0.00,,,0.00,18,Wunderground v.1.15,2013-08-08 11:00:00,
2013-08-08 07:06:00,68.1,63.8,30.11,SSW,195,0.0,0.0,86,0.00,,,0.00,28,Wunderground v.1.15,2013-08-08 11:06:00,
2013-08-08 07:12:00,68.1,64.1,30.11,SSW,195,0.0,0.0,87,0.00,,,0.00,40,Wunderground v.1.15,2013-08-08 11:12:00,
2013-08-08 07:18:00,68.3,63.6,30.11,SSW,195,0.0,0.0,85,0.00,,,0.00,30,Wunderground v.1.15,2013-08-08 11:18:00,
2013-08-08 07:24:00,68.5,64.1,30.11,SSW,195,0.0,0.0,86,0.00,,,0.00,14,Wunderground v.1.15,2013-08-08 11:24:00,
2013-08-08 07:29:00,68.4,64.0,30.11,SSW,195,0.0,0.0,86,0.00,,,0.00,7,Wunderground v.1.15,2013-08-08 11:29:00,
2013-08-08 07:34:00,68.4,63.7,30.11,SSW,195,0.0,0.0,85,0.00,,,0.00,9,Wunderground v.1.15,2013-08-08 11:34:00,
2013-08-08 07:40:00,68.4,63.7,30.11,SSW,195,0.0,0.0,85,0.00,,,0.00,16,Wunderground v.1.15,2013-08-08 11:40:00,
2013-08-08 07:46:00,68.4,63.7,30.11,SSW,195,0.0,0.0,85,0.00,,,0.00,30,Wunderground v.1.15,2013-08-08 11:46:00,
2013-08-08 07:51:00,68.6,63.9,30.11,SSW,195,0.0,0.0,85,0.00,,,0.00,30,Wunderground v.1.15,2013-08-08 11:51:00,
2013-08-08 07:57:00,68.8,64.1,30.11,SSW,195,0.0,0.0,85,0.00,,,0.00,16,Wunderground v.1.15,2013-08-08 11:57:00,
2013-08-08 08:03:00,68.9,64.5,30.11,SSW,195,0.0,0.0,86,0.00,,,0.00,18,Wunderground v.1.15,2013-08-08 12:03:00,
2013-08-08 08:09:00,68.9,64.9,30.11,SSW,195,0.0,0.0,87,0.00,,,0.00,25,Wunderground v.1.15,2013-08-08 12:09:00,
2013-08-08 08:14:00,68.8,65.1,30.11,SSW,195,0.0,0.0,88,0.00,,,0.00,28,Wunderground v.1.15,2013-08-08 12:14:00,
2013-08-08 08:19:00,68.6,65.2,30.11,SSW,195,0.0,0.0,89,0.00,,,0.00,65,Wunderground v.1.15,2013-08-08 12:19:00,
2013-08-08 08:26:00,68.7,65.3,30.11,SSW,195,0.0,0.0,89,0.00,,,0.00,44,Wunderground v.1.15,2013-08-08 12:26:00,
2013-08-08 08:31:00,68.8,65.7,30.11,SSW,195,0.0,0.0,90,0.00,,,0.00,54,Wunderground v.1.15,2013-08-08 12:31:00,
2013-08-08 08:37:00,69.1,66.0,30.11,SSW,195,0.0,0.0,90,0.00,,,0.00,65,Wunderground v.1.15,2013-08-08 12:37:00,
2013-08-08 08:43:00,69.4,66.0,30.11,SSW,195,0.0,0.0,89,0.00,,,0.00,70,Wunderground v.1.15,2013-08-08 12:43:00,
2013-08-08 08:48:00,69.7,66.0,30.11,SSE,159,0.0,1.0,88,0.00,,,0.00,76,Wunderground v.1.15,2013-08-08 12:48:00,
2013-08-08 08:54:00,69.9,65.9,30.10,SSE,160,0.0,0.0,87,0.00,,,0.00,185,Wunderground v.1.15,2013-08-08 12:54:00,
2013-08-08 08:59:00,70.8,66.4,30.10,SE,144,0.0,3.0,86,0.00,,,0.00,369,Wunderground v.1.15,2013-08-08 12:59:00,
2013-08-08 09:05:00,71.7,66.6,30.10,South,176,1.0,3.0,84,0.00,,,0.00,186,Wunderground v.1.15,2013-08-08 13:05:00,
2013-08-08 09:10:00,72.5,66.7,30.10,SSE,158,1.0,1.0,82,0.00,,,0.00,218,Wunderground v.1.15,2013-08-08 13:10:00,
2013-08-08 09:15:00,72.7,66.9,30.10,South,182,1.0,3.0,82,0.00,,,0.00,162,Wunderground v.1.15,2013-08-08 13:15:00,
2013-08-08 09:21:00,72.4,66.9,30.10,South,173,1.0,3.0,83,0.00,,,0.00,171,Wunderground v.1.15,2013-08-08 13:21:00,
2013-08-08 09:27:00,72.2,66.7,30.10,SSW,202,1.0,3.0,83,0.00,,,0.00,149,Wunderground v.1.15,2013-08-08 13:27:00,
2013-08-08 09:32:00,72.2,67.1,30.10,SW,215,0.0,1.0,84,0.00,,,0.00,137,Wunderground v.1.15,2013-08-08 13:32:00,
2013-08-08 09:37:00,72.4,67.3,30.10,SSE,157,0.0,1.0,84,0.00,,,0.00,179,Wunderground v.1.15,2013-08-08 13:37:00,
2013-08-08 09:43:00,72.8,67.7,30.11,SSW,213,0.0,0.0,84,0.00,,,0.00,125,Wunderground v.1.15,2013-08-08 13:43:00,
2013-08-08 09:49:00,72.8,67.7,30.11,South,190,0.0,1.0,84,0.00,,,0.00,123,Wunderground v.1.15,2013-08-08 13:49:00,
2013-08-08 09:54:00,72.8,67.7,30.11,South,183,1.0,1.0,84,0.00,,,0.00,156,Wunderground v.1.15,2013-08-08 13:54:00,
2013-08-08 09:59:00,73.1,68.3,30.11,SSW,194,1.0,1.0,85,0.00,,,0.00,105,Wunderground v.1.15,2013-08-08 13:59:00,
2013-08-08 10:05:00,73.1,68.3,30.11,SW,222,0.0,1.0,85,0.00,,,0.00,121,Wunderground v.1.15,2013-08-08 14:05:00,
2013-08-08 10:10:00,73.5,68.7,30.11,SSE,161,1.0,1.0,85,0.00,,,0.00,236,Wunderground v.1.15,2013-08-08 14:10:00,
2013-08-08 10:16:00,74.4,69.2,30.11,SSE,167,1.0,1.0,84,0.00,,,0.00,169,Wunderground v.1.15,2013-08-08 14:16:00,
2013-08-08 10:21:00,74.5,69.0,30.11,SE,131,1.0,1.0,83,0.00,,,0.00,90,Wunderground v.1.15,2013-08-08 14:21:00,
2013-08-08 10:27:00,74.2,69.1,30.11,SE,134,1.0,3.0,84,0.00,,,0.00,295,Wunderground v.1.15,2013-08-08 14:27:00,
2013-08-08 10:32:00,75.1,69.9,30.11,South,175,1.0,1.0,84,0.00,,,0.00,323,Wunderground v.1.15,2013-08-08 14:32:00,
2013-08-08 10:37:00,75.7,69.8,30.11,South,183,1.0,2.0,82,0.00,,,0.00,232,Wunderground v.1.15,2013-08-08 14:37:00,
2013-08-08 10:43:00,75.8,70.3,30.10,SW,227,1.0,2.0,83,0.00,,,0.00,258,Wunderground v.1.15,2013-08-08 14:43:00,
2013-08-08 10:49:00,76.6,70.0,30.10,South,171,1.0,3.0,80,0.00,,,0.00,911,Wunderground v.1.15,2013-08-08 14:49:00,
2013-08-08 10:54:00,76.2,69.6,30.10,SSE,152,1.0,3.0,80,0.00,,,0.00,197,Wunderground v.1.15,2013-08-08 14:54:00,
2013-08-08 10:59:00,75.9,69.6,30.10,South,187,2.0,3.0,81,0.00,,,0.00,243,Wunderground v.1.15,2013-08-08 14:59:00,
2013-08-08 11:04:00,77.4,70.7,30.10,South,169,1.0,2.0,80,0.00,,,0.00,279,Wunderground v.1.15,2013-08-08 15:04:00,
2013-08-08 11:09:00,78.8,70.2,30.10,South,175,1.0,3.0,75,0.00,,,0.00,476,Wunderground v.1.15,2013-08-08 15:09:00,
2013-08-08 11:15:00,79.5,71.3,30.10,WNW,290,1.0,1.0,76,0.00,,,0.00,366,Wunderground v.1.15,2013-08-08 15:15:00,
2013-08-08 11:21:00,78.9,69.1,30.10,SE,136,1.0,3.0,72,0.00,,,0.00,454,Wunderground v.1.15,2013-08-08 15:21:00,
2013-08-08 11:26:00,78.4,68.6,30.09,SE,146,2.0,4.0,72,0.00,,,0.00,327,Wunderground v.1.15,2013-08-08 15:26:00,
2013-08-08 11:31:00,77.8,68.0,30.09,SSW,208,2.0,2.0,72,0.00,,,0.00,367,Wunderground v.1.15,2013-08-08 15:31:00,
2013-08-08 11:36:00,77.3,68.0,30.09,SSE,165,2.0,2.0,73,0.00,,,0.00,323,Wunderground v.1.15,2013-08-08 15:36:00,
2013-08-08 11:41:00,77.6,68.7,30.09,SE,143,2.0,2.0,74,0.00,,,0.00,404,Wunderground v.1.15,2013-08-08 15:41:00,
2013-08-08 11:46:00,78.4,68.2,30.09,South,171,2.0,3.0,71,0.00,,,0.00,896,Wunderground v.1.15,2013-08-08 15:46:00,
2013-08-08 11:52:00,78.6,68.8,30.09,South,177,2.0,2.0,72,0.00,,,0.00,846,Wunderground v.1.15,2013-08-08 15:52:00,
2013-08-08 11:58:00,79.1,68.5,30.09,SSE,166,2.0,2.0,70,0.00,,,0.00,566,Wunderground v.1.15,2013-08-08 15:58:00,
2013-08-08 12:04:00,79.8,69.6,30.09,SSW,197,2.0,3.0,71,0.00,,,0.00,879,Wunderground v.1.15,2013-08-08 16:04:00,
2013-08-08 12:09:00,80.3,70.0,30.09,South,174,2.0,3.0,71,0.00,,,0.00,121,Wunderground v.1.15,2013-08-08 16:09:00,
2013-08-08 12:14:00,80.1,69.4,30.08,South,184,2.0,2.0,70,0.00,,,0.00,144,Wunderground v.1.15,2013-08-08 16:14:00,
2013-08-08 12:19:00,80.2,68.7,30.08,SW,225,2.0,2.0,68,0.00,,,0.00,313,Wunderground v.1.15,2013-08-08 16:19:00,
2013-08-08 12:25:00,80.3,69.2,30.09,SSW,205,2.0,2.0,69,0.00,,,0.00,97,Wunderground v.1.15,2013-08-08 16:25:00,
2013-08-08 12:31:00,80.4,68.9,30.09,South,171,2.0,3.0,68,0.00,,,0.00,118,Wunderground v.1.15,2013-08-08 16:31:00,
2013-08-08 12:36:00,79.9,68.4,30.08,South,175,2.0,3.0,68,0.00,,,0.00,174,Wunderground v.1.15,2013-08-08 16:36:00,
2013-08-08 12:42:00,80.2,69.5,30.08,South,173,1.0,4.0,70,0.00,,,0.00,128,Wunderground v.1.15,2013-08-08 16:42:00,
2013-08-08 12:47:00,79.9,68.8,30.08,West,279,2.0,5.0,69,0.00,,,0.00,323,Wunderground v.1.15,2013-08-08 16:47:00,
2013-08-08 12:53:00,79.8,67.9,30.08,SE,139,2.0,2.0,67,0.00,,,0.00,83,Wunderground v.1.15,2013-08-08 16:53:00,
2013-08-08 12:59:00,80.1,67.7,30.08,SSE,157,2.0,4.0,66,0.00,,,0.00,134,Wunderground v.1.15,2013-08-08 16:59:00,
2013-08-08 13:05:00,79.8,67.4,30.08,South,172,2.0,3.0,66,0.00,,,0.00,83,Wunderground v.1.15,2013-08-08 17:05:00,
2013-08-08 13:11:00,79.7,68.2,30.08,SSW,202,2.0,2.0,68,0.00,,,0.00,88,Wunderground v.1.15,2013-08-08 17:11:00,
2013-08-08 13:17:00,79.5,68.4,30.08,South,188,2.0,2.0,69,0.00,,,0.00,100,Wunderground v.1.15,2013-08-08 17:17:00,
2013-08-08 13:22:00,79.1,68.5,30.08,SE,136,2.0,3.0,70,0.00,,,0.00,90,Wunderground v.1.15,2013-08-08 17:22:00,
2013-08-08 13:28:00,79.1,68.9,30.09,East,90,3.0,5.0,71,0.00,,,0.00,91,Wunderground v.1.15,2013-08-08 17:28:00,
2013-08-08 13:34:00,78.8,68.2,30.09,SE,132,2.0,3.0,70,0.00,,,0.00,162,Wunderground v.1.15,2013-08-08 17:34:00,
2013-08-08 13:40:00,78.6,68.4,30.09,SSE,158,2.0,4.0,71,0.00,,,0.00,95,Wunderground v.1.15,2013-08-08 17:40:00,
2013-08-08 13:46:00,78.6,68.8,30.08,NW,322,2.0,4.0,72,0.00,,,0.00,84,Wunderground v.1.15,2013-08-08 17:46:00,
2013-08-08 13:51:00,78.7,68.5,30.09,South,180,2.0,3.0,71,0.00,,,0.00,91,Wunderground v.1.15,2013-08-08 17:51:00,
2013-08-08 13:56:00,79.2,69.8,30.09,WNW,301,2.0,3.0,73,0.00,,,0.00,79,Wunderground v.1.15,2013-08-08 17:56:00,
2013-08-08 14:02:00,78.8,69.0,30.09,South,187,1.0,3.0,72,0.00,,,0.00,79,Wunderground v.1.15,2013-08-08 18:02:00,
2013-08-08 14:08:00,78.7,68.9,30.09,SE,141,2.0,3.0,72,0.00,,,0.00,81,Wunderground v.1.15,2013-08-08 18:08:00,
2013-08-08 14:14:00,79.0,69.6,30.09,SE,145,2.0,3.0,73,0.00,,,0.00,84,Wunderground v.1.15,2013-08-08 18:14:00,
2013-08-08 14:19:00,78.5,69.5,30.08,SE,138,2.0,4.0,74,0.00,,,0.00,77,Wunderground v.1.15,2013-08-08 18:19:00,
2013-08-08 14:24:00,78.4,69.4,30.09,West,279,2.0,2.0,74,0.00,,,0.00,88,Wunderground v.1.15,2013-08-08 18:24:00,
2013-08-08 14:30:00,78.1,69.1,30.09,NNE,18,1.0,1.0,74,0.00,,,0.00,86,Wunderground v.1.15,2013-08-08 18:30:00,
2013-08-08 14:36:00,78.8,69.8,30.08,SSE,168,1.0,1.0,74,0.00,,,0.00,91,Wunderground v.1.15,2013-08-08 18:36:00,
2013-08-08 14:42:00,78.6,69.6,30.08,South,184,1.0,2.0,74,0.00,,,0.00,102,Wunderground v.1.15,2013-08-08 18:42:00,
2013-08-08 14:48:00,78.7,70.5,30.08,WSW,245,1.0,3.0,76,0.00,,,0.00,97,Wunderground v.1.15,2013-08-08 18:48:00,
2013-08-08 14:53:00,78.7,69.7,30.08,South,180,1.0,4.0,74,0.00,,,0.00,151,Wunderground v.1.15,2013-08-08 18:53:00,
2013-08-08 14:59:00,78.5,69.9,30.08,SE,142,2.0,7.0,75,0.00,,,0.00,111,Wunderground v.1.15,2013-08-08 18:59:00,
2013-08-08 15:04:00,77.8,69.6,30.09,SSW,196,2.0,4.0,76,0.00,,,0.00,192,Wunderground v.1.15,2013-08-08 19:04:00,
2013-08-08 15:10:00,77.5,69.7,30.09,SSE,161,2.0,2.0,77,0.00,,,0.00,151,Wunderground v.1.15,2013-08-08 19:10:00,
2013-08-08 15:15:00,78.1,69.9,30.09,South,188,2.0,3.0,76,0.00,,,0.00,186,Wunderground v.1.15,2013-08-08 19:15:00,
2013-08-08 15:20:00,78.3,69.7,30.09,SE,139,2.0,2.0,75,0.00,,,0.00,199,Wunderground v.1.15,2013-08-08 19:20:00,
2013-08-08 15:25:00,77.9,69.7,30.08,SSE,165,2.0,3.0,76,0.00,,,0.00,250,Wunderground v.1.15,2013-08-08 19:25:00,
2013-08-08 15:31:00,77.7,69.5,30.08,South,180,2.0,2.0,76,0.00,,,0.00,387,Wunderground v.1.15,2013-08-08 19:31:00,
2013-08-08 15:37:00,77.5,69.7,30.08,WNW,302,2.0,3.0,77,0.00,,,0.00,374,Wunderground v.1.15,2013-08-08 19:37:00,
2013-08-08 15:43:00,78.0,69.8,30.08,South,189,1.0,3.0,76,0.00,,,0.00,417,Wunderground v.1.15,2013-08-08 19:43:00,
2013-08-08 15:48:00,77.8,69.2,30.07,ESE,121,2.0,5.0,75,0.00,,,0.00,615,Wunderground v.1.15,2013-08-08 19:48:00,
2013-08-08 15:53:00,77.5,69.3,30.07,South,181,2.0,3.0,76,0.00,,,0.00,603,Wunderground v.1.15,2013-08-08 19:53:00,
2013-08-08 15:59:00,77.5,69.3,30.07,SW,217,2.0,4.0,76,0.00,,,0.00,490,Wunderground v.1.15,2013-08-08 19:59:00,
2013-08-08 16:05:00,77.7,69.5,30.07,SSE,162,2.0,3.0,76,0.00,,,0.00,675,Wunderground v.1.15,2013-08-08 20:05:00,
2013-08-08 16:10:00,77.7,69.5,30.07,South,184,2.0,2.0,76,0.00,,,0.00,626,Wunderground v.1.15,2013-08-08 20:10:00,
2013-08-08 16:15:00,77.8,69.6,30.08,SSE,153,1.0,2.0,76,0.00,,,0.00,598,Wunderground v.1.15,2013-08-08 20:15:00,
2013-08-08 16:21:00,77.7,69.5,30.07,SSE,153,1.0,5.0,76,0.00,,,0.00,578,Wunderground v.1.15,2013-08-08 20:21:00,
2013-08-08 16:26:00,77.2,69.0,30.07,South,176,1.0,5.0,76,0.00,,,0.00,554,Wunderground v.1.15,2013-08-08 20:26:00,
2013-08-08 16:31:00,76.8,69.0,30.07,South,186,2.0,2.0,77,0.00,,,0.00,508,Wunderground v.1.15,2013-08-08 20:31:00,
2013-08-08 16:37:00,76.4,68.7,30.07,SSE,157,2.0,2.0,77,0.00,,,0.00,519,Wunderground v.1.15,2013-08-08 20:37:00,
2013-08-08 16:43:00,75.8,68.4,30.07,South,177,2.0,2.0,78,0.00,,,0.00,403,Wunderground v.1.15,2013-08-08 20:43:00,
2013-08-08 16:48:00,75.8,68.4,30.07,SSE,156,1.0,2.0,78,0.00,,,0.00,501,Wunderground v.1.15,2013-08-08 20:48:00,
2013-08-08 16:53:00,75.9,68.5,30.06,South,186,2.0,3.0,78,0.00,,,0.00,485,Wunderground v.1.15,2013-08-08 20:53:00,
2013-08-08 16:58:00,75.6,68.3,30.06,South,186,2.0,3.0,78,0.00,,,0.00,462,Wunderground v.1.15,2013-08-08 20:58:00,
2013-08-08 17:04:00,75.3,68.0,30.06,SSW,202,2.0,5.0,78,0.00,,,0.00,411,Wunderground v.1.15,2013-08-08 21:04:00,
2013-08-08 17:10:00,75.3,68.3,30.06,South,173,2.0,2.0,79,0.00,,,0.00,424,Wunderground v.1.15,2013-08-08 21:10:00,
2013-08-08 17:15:00,75.2,67.9,30.06,South,171,1.0,2.0,78,0.00,,,0.00,364,Wunderground v.1.15,2013-08-08 21:15:00,
2013-08-08 17:21:00,74.9,67.9,30.06,South,176,2.0,2.0,79,0.00,,,0.00,387,Wunderground v.1.15,2013-08-08 21:21:00,
2013-08-08 17:26:00,75.0,68.0,30.06,South,175,2.0,2.0,79,0.00,,,0.00,357,Wunderground v.1.15,2013-08-08 21:26:00,
2013-08-08 17:31:00,74.9,67.9,30.06,South,169,1.0,1.0,79,0.00,,,0.00,315,Wunderground v.1.15,2013-08-08 21:31:00,
2013-08-08 17:37:00,74.8,68.2,30.06,SW,225,1.0,1.0,80,0.00,,,0.00,246,Wunderground v.1.15,2013-08-08 21:37:00,
2013-08-08 17:43:00,74.6,68.0,30.06,South,177,1.0,4.0,80,0.00,,,0.00,246,Wunderground v.1.15,2013-08-08 21:43:00,
2013-08-08 17:48:00,74.7,68.1,30.06,SSE,149,1.0,5.0,80,0.00,,,0.00,295,Wunderground v.1.15,2013-08-08 21:48:00,
2013-08-08 17:54:00,74.5,67.9,30.06,South,180,1.0,2.0,80,0.00,,,0.00,283,Wunderground v.1.15,2013-08-08 21:54:00,
2013-08-08 18:00:00,74.5,68.3,30.06,SSW,196,0.0,0.0,81,0.00,,,0.00,69,Wunderground v.1.15,2013-08-08 22:00:00,
2013-08-08 18:06:00,74.0,67.4,30.06,South,176,1.0,4.0,80,0.00,,,0.00,54,Wunderground v.1.15,2013-08-08 22:06:00,
2013-08-08 18:11:00,73.5,67.7,30.06,SSW,192,1.0,1.0,82,0.00,,,0.00,70,Wunderground v.1.15,2013-08-08 22:11:00,
2013-08-08 18:17:00,73.1,67.3,30.05,South,181,1.0,2.0,82,0.00,,,0.00,58,Wunderground v.1.15,2013-08-08 22:17:00,
2013-08-08 18:23:00,72.9,67.4,30.05,South,178,1.0,1.0,83,0.00,,,0.00,91,Wunderground v.1.15,2013-08-08 22:23:00,
2013-08-08 18:28:00,72.8,67.3,30.05,South,191,1.0,1.0,83,0.00,,,0.00,54,Wunderground v.1.15,2013-08-08 22:28:00,
2013-08-08 18:33:00,72.8,67.7,30.05,SSE,158,1.0,1.0,84,0.00,,,0.00,53,Wunderground v.1.15,2013-08-08 22:33:00,
2013-08-08 18:38:00,72.8,67.7,30.05,South,170,1.0,2.0,84,0.00,,,0.00,72,Wunderground v.1.15,2013-08-08 22:38:00,
2013-08-08 18:44:00,72.9,68.1,30.05,SSE,152,0.0,1.0,85,0.00,,,0.00,32,Wunderground v.1.15,2013-08-08 22:44:00,
2013-08-08 18:49:00,72.9,68.1,30.05,WSW,254,0.0,1.0,85,0.00,,,0.00,23,Wunderground v.1.15,2013-08-08 22:49:00,
2013-08-08 18:54:00,72.9,68.1,30.05,South,175,0.0,3.0,85,0.00,,,0.00,19,Wunderground v.1.15,2013-08-08 22:54:00,
2013-08-08 18:59:00,72.7,68.3,30.06,ESE,102,1.0,4.0,86,0.00,,,0.00,16,Wunderground v.1.15,2013-08-08 22:59:00,
2013-08-08 19:06:00,72.5,68.1,30.06,SSW,192,1.0,3.0,86,0.00,,,0.00,19,Wunderground v.1.15,2013-08-08 23:06:00,
2013-08-08 19:12:00,72.5,68.1,30.06,SE,133,1.0,1.0,86,0.00,,,0.00,21,Wunderground v.1.15,2013-08-08 23:12:00,
2013-08-08 19:18:00,72.5,68.4,30.06,South,173,1.0,1.0,87,0.00,,,0.00,7,Wunderground v.1.15,2013-08-08 23:18:00,
2013-08-08 19:24:00,72.5,68.1,30.06,SSE,153,0.0,1.0,86,0.00,,,0.00,9,Wunderground v.1.15,2013-08-08 23:24:00,
2013-08-08 19:32:00,72.4,68.0,30.07,South,169,1.0,1.0,86,0.00,,,0.00,7,Wunderground v.1.15,2013-08-08 23:32:00,
2013-08-08 19:37:00,72.4,68.3,30.06,SSW,194,1.0,1.0,87,0.00,,,0.00,7,Wunderground v.1.15,2013-08-08 23:37:00,
2013-08-08 19:42:00,72.4,68.3,30.07,South,180,1.0,3.0,87,0.00,,,0.00,0,Wunderground v.1.15,2013-08-08 23:42:00,
2013-08-08 19:50:00,72.3,68.2,30.07,SSW,200,0.0,0.0,87,0.00,,,0.00,0,Wunderground v.1.15,2013-08-08 23:50:00,
2013-08-08 19:55:00,72.2,68.1,30.07,SSW,194,1.0,1.0,87,0.00,,,0.00,0,Wunderground v.1.15,2013-08-08 23:55:00,
2013-08-08 20:00:00,72.2,68.1,30.07,SSE,155,0.0,0.0,87,0.00,,,0.00,0,Wunderground v.1.15,2013-08-09 00:00:00,
2013-08-08 20:06:00,72.1,68.3,30.07,SE,125,0.0,1.0,88,0.00,,,0.00,0,Wunderground v.1.15,2013-08-09 00:06:00,
2013-08-08 20:11:00,72.1,68.3,30.07,SSW,211,0.0,1.0,88,0.00,,,0.00,0,Wunderground v.1.15,2013-08-09 00:11:00,
2013-08-08 20:17:00,72.1,68.3,30.07,South,171,0.0,1.0,88,0.00,,,0.00,0,Wunderground v.1.15,2013-08-09 00:17:00,
2013-08-08 20:25:00,72.1,68.7,30.07,South,180,0.0,3.0,89,0.00,,,0.00,0,Wunderground v.1.15,2013-08-09 00:25:00,
2013-08-08 20:30:00,72.2,68.8,30.08,South,182,0.0,1.0,89,0.00,,,0.00,0,Wunderground v.1.15,2013-08-09 00:30:00,
2013-08-08 20:36:00,72.1,68.7,30.08,ESE,103,1.0,2.0,89,0.00,,,0.00,0,Wunderground v.1.15,2013-08-09 00:36:00,
2013-08-08 20:41:00,72.2,68.8,30.08,South,177,0.0,2.0,89,0.00,,,0.00,0,Wunderground v.1.15,2013-08-09 00:41:00,
2013-08-08 20:48:00,72.2,69.1,30.08,SE,128,0.0,3.0,90,0.00,,,0.00,0,Wunderground v.1.15,2013-08-09 00:48:00,
2013-08-08 20:54:00,72.2,69.1,30.08,SSW,192,0.0,2.0,90,0.00,,,0.00,0,Wunderground v.1.15,2013-08-09 00:54:00,
2013-08-08 21:00:00,72.2,69.1,30.08,SSE,160,0.0,1.0,90,0.00,,,0.00,0,Wunderground v.1.15,2013-08-09 01:00:00,
2013-08-08 21:06:00,72.1,69.0,30.09,SSE,163,0.0,1.0,90,0.00,,,0.00,0,Wunderground v.1.15,2013-08-09 01:06:00,
2013-08-08 21:13:00,72.1,69.0,30.09,SSE,159,0.0,0.0,90,0.00,,,0.00,0,Wunderground v.1.15,2013-08-09 01:13:00,
2013-08-08 21:19:00,72.1,69.0,30.09,SSE,159,0.0,0.0,90,0.00,,,0.00,0,Wunderground v.1.15,2013-08-09 01:19:00,
2013-08-08 21:25:00,72.1,69.0,30.09,SSE,147,0.0,2.0,90,0.00,,,0.00,0,Wunderground v.1.15,2013-08-09 01:25:00,
2013-08-08 21:30:00,72.2,69.1,30.09,SSE,155,0.0,0.0,90,0.00,,,0.00,0,Wunderground v.1.15,2013-08-09 01:30:00,
2013-08-08 21:35:00,72.2,69.4,30.09,SSE,157,0.0,0.0,91,0.00,,,0.00,0,Wunderground v.1.15,2013-08-09 01:35:00,
2013-08-08 21:40:00,72.2,69.1,30.09,South,190,0.0,0.0,90,0.00,,,0.00,0,Wunderground v.1.15,2013-08-09 01:40:00,
2013-08-08 21:46:00,72.2,69.1,30.09,South,190,0.0,3.0,90,0.00,,,0.00,0,Wunderground v.1.15,2013-08-09 01:46:00,
2013-08-08 21:51:00,72.2,69.1,30.09,South,169,0.0,0.0,90,0.00,,,0.00,0,Wunderground v.1.15,2013-08-09 01:51:00,
2013-08-08 21:57:00,72.2,69.1,30.09,SSE,165,0.0,1.0,90,0.00,,,0.00,0,Wunderground v.1.15,2013-08-09 01:57:00,
2013-08-08 22:02:00,72.2,69.4,30.09,East,91,0.0,0.0,91,0.00,,,0.00,0,Wunderground v.1.15,2013-08-09 02:02:00,
2013-08-08 22:07:00,72.2,69.4,30.09,SSE,157,0.0,1.0,91,0.00,,,0.00,0,Wunderground v.1.15,2013-08-09 02:07:00,
2013-08-08 22:12:00,72.2,69.4,30.09,SSE,167,0.0,0.0,91,0.00,,,0.00,0,Wunderground v.1.15,2013-08-09 02:12:00,
2013-08-08 22:18:00,72.1,69.3,30.08,South,173,0.0,1.0,91,0.00,,,0.00,0,Wunderground v.1.15,2013-08-09 02:18:00,
2013-08-08 22:23:00,72.1,69.0,30.08,SSE,165,0.0,0.0,90,0.00,,,0.00,0,Wunderground v.1.15,2013-08-09 02:23:00,
2013-08-08 22:29:00,72.1,69.0,30.08,South,180,0.0,1.0,90,0.00,,,0.00,0,Wunderground v.1.15,2013-08-09 02:29:00,
2013-08-08 22:35:00,72.1,69.3,30.08,South,180,0.0,1.0,91,0.00,,,0.00,0,Wunderground v.1.15,2013-08-09 02:35:00,
2013-08-08 22:40:00,72.1,69.3,30.08,South,181,0.0,1.0,91,0.00,,,0.00,0,Wunderground v.1.15,2013-08-09 02:40:00,
2013-08-08 22:46:00,72.1,69.3,30.08,South,185,0.0,1.0,91,0.00,,,0.00,0,Wunderground v.1.15,2013-08-09 02:46:00,
2013-08-08 22:52:00,72.2,69.7,30.08,SSE,165,0.0,2.0,92,0.00,,,0.00,0,Wunderground v.1.15,2013-08-09 02:52:00,
2013-08-08 22:59:00,72.2,69.7,30.08,NNE,17,0.0,2.0,92,0.00,,,0.00,0,Wunderground v.1.15,2013-08-09 02:59:00,
2013-08-08 23:05:00,72.3,69.8,30.08,SE,138,0.0,0.0,92,0.00,,,0.00,0,Wunderground v.1.15,2013-08-09 03:05:00,
2013-08-08 23:11:00,72.4,69.9,30.08,South,178,0.0,1.0,92,0.00,,,0.00,0,Wunderground v.1.15,2013-08-09 03:11:00,
2013-08-08 23:17:00,72.5,70.0,30.08,SSE,162,0.0,1.0,92,0.00,,,0.00,0,Wunderground v.1.15,2013-08-09 03:17:00,
2013-08-08 23:25:00,72.5,70.0,30.08,SSW,209,0.0,0.0,92,0.00,,,0.00,0,Wunderground v.1.15,2013-08-09 03:25:00,
2013-08-08 23:31:00,72.6,70.1,30.08,SSW,192,0.0,0.0,92,0.00,,,0.00,0,Wunderground v.1.15,2013-08-09 03:31:00,
2013-08-08 23:36:00,72.6,70.1,30.08,SSW,194,0.0,1.0,92,0.00,,,0.00,0,Wunderground v.1.15,2013-08-09 03:36:00,
2013-08-08 23:41:00,72.6,70.1,30.08,SSW,194,0.0,0.0,92,0.00,,,0.00,0,Wunderground v.1.15,2013-08-09 03:41:00,
2013-08-08 23:47:00,72.6,70.1,30.08,South,177,0.0,1.0,92,0.00,,,0.00,0,Wunderground v.1.15,2013-08-09 03:47:00,
2013-08-08 23:54:00,72.7,70.2,30.08,SSE,168,0.0,1.0,92,0.00,,,0.00,0,Wunderground v.1.15,2013-08-09 03:54:00,